Powrót do katalogu

CZ-6A DEB

AktywnyPO
NORAD 60798·DEBRIS·🇨🇳 China

Wystrzelony Aug 6, 2024 z Taiyuan Satellite Launch Center

Loading…

Następne Przeloty (najbliższe 24 godziny)

TLE

ŚwieżeSource: Space-Track

Epoka: Sep 14, 2026, 18:22 UTC

1 60798U 24140FZ  26257.76565472  .00000174  00000-0  84576-4 0  9991
2 60798  89.0440 269.9785 0073455 274.7102  84.5698 14.12807564107826

Śledź CZ-6A DEB w czasie rzeczywistym z AllMySat

Download on the App Store